Regional Weather Roundup
Issued by NWS Jackson, KY

Home | Current Version | Previous Version | Graphics & Text | Print | Product List | Glossary Off
Versions: 1 2 3 4 5 6 7 8 9 10 11 12 13 14 15 16 17 18 19 20 21 22 23 24 25 26 27 28 29 30 31 32 33 34 35 36 37 38 39 40 41 42 43 44 45 46 47 48 49 50

000
ASUS43 KJKL 232210
RWRJKL

EAST KENTUCKY HOURLY WEATHER ROUNDUP
NATIONAL WEATHER SERVICE JACKSON KY
600 PM EDT WED APR 23 2014

NOTE: "FAIR" INDICATES FEW OR NO CLOUDS BELOW 12,000 FEET WITH
NO SIGNIFICANT WEATHER AND/OR OBSTRUCTIONS TO VISIBILITY.

* THESE REPORTS ARE NOT UNDER NWS QUALITY CONTROL AND MAY NOT
  REPORT WEATHER SUCH AS PRECIPITATION AND FOG.

KYZ079-080-083-085-087-088-110-112-115-119-120-232300
...EASTERN KENTUCKY...

CITY           SKY/WX    TMP DP  RH WIND       PRES   REMARKS
JACKSON        SUNNY     62  27  26 VRB3      30.01S
LONDON         SUNNY     65  27  23 N8        30.00S
SOMERSET*      SUNNY     61  30  31 N5        30.03S
WILLIAMSBURG*  SUNNY     64  28  25 NW6       30.00
MIDDLESBORO*   SUNNY     66  28  23 N10       29.98S
HARLAN APT*    CLEAR     64  21  19 NW10      29.98S
BLACK MTN*       N/A     52  23  32 NE5         N/A
PIKEVILLE APT* SUNNY     61  27  27 N6        30.00S
BIG SANDY*     CLEAR     62  29  29 N6        30.00F
MOREHEAD APT*  CLEAR    N/A N/A N/A NW8       30.05S
$$

KYZ035-036-041-042-044-050-067-078-099-232300
...CENTRAL KENTUCKY...

CITY           SKY/WX    TMP DP  RH WIND       PRES   REMARKS
MT STERLING*   SUNNY     59  34  38 CALM      30.05S
FLEMING/MASON* SUNNY     57  32  38 NW6       30.05S
DANVILLE*      SUNNY     59  36  41 N7        30.05S
RICHMOND*      SUNNY     59  32  36 N6        30.04S
LEXINGTON      SUNNY     61  34  36 VRB5      30.04F
FRANKFORT      SUNNY     62  29  28 NE7       30.03S
$$

KYZ091>093-OHZ055-061-077-WVZ005-015-034-035-042-232300
...SOUTHERN OHIO/WEST VIRGINIA...

CITY           SKY/WX    TMP DP  RH WIND       PRES   REMARKS
COVINGTON      MOSUNNY   60  30  32 N10       30.05
COLUMBUS       MOSUNNY   57  31  37 N14       30.05F
DAYTON         MOSUNNY   58  32  37 N7        30.07S
WILMINGTON     SUNNY     58  32  37 N8        30.04F
HUNTINGTON     SUNNY     61  31  32 NW10      30.02S
CHARLESTON     MOSUNNY   61  31  32 NW15G23   30.00S
PINEVILLE*     SUNNY     63  32  31 MISG      30.03R
BECKLEY        SUNNY     56  26  31 N14G21    29.98R
BLUEFIELD      SUNNY     60  21  22 NW8G17    29.97S
$$

VAZ002-007-008-TNZ017-027-036-066-071-232300
...SOUTHWEST VIRGINIA/EAST TENNESSEE...

CITY           SKY/WX    TMP DP  RH WIND       PRES   REMARKS
WISE*          SUNNY     61  23  23 N7        30.00F
ABINGDON*      SUNNY     64  21  19 N9        29.96S
BRISTOL        SUNNY     68  18  14 NW6       29.94S
KNOXVILLE      SUNNY     69  28  21 N6        29.95F
OAK RIDGE      SUNNY     72  27  18 CALM      29.96S
CROSSVILLE     SUNNY     67  26  21 NE9       29.99S
NASHVILLE      MOSUNNY   70  34  26 N13       29.99F
$$

...KEY TO REMARKS...
VSB - VISIBILITY IN MILES
WCI - WIND CHILL INDEX
HX  - HEAT INDEX

$$



USA.gov is the U.S. government's official web portal to all federal, state and local government web resources and services.